1289520032059,97.6704
1289520092059,97.2032
1289520152059,96.9314
1289520212059,97.2311
1289520272059,97.2130
1289520332059,97.4204
1289520392059,97.2479
1289520452059,97.2561
1289520512059,97.1062
1289520572059,96.7442
1289520632059,97.0729
1289520692059,97.0798
1289520752059,97.4587
1289520812059,96.8344
1289520872059,96.9668
1289520932059,97.2983
1289520992059,98.0002
1289521052059,96.8841
1289521112059,97.0428
1289521172059,97.4372
1289521232059,97.2028
1289521292059,97.2350
1289521352059,97.2930
1289521412059,97.3747
1289521472059,97.4156
1289521532059,97.1568
1289521592059,97.3816
1289521652059,96.7866
1289521712059,97.9787
1289521772059,97.4129
1289521832059,97.4483
1289521892059,97.3417
1289521952059,96.9908
1289522012059,97.1401
1289522072059,97.2293
1289522132059,97.4929
1289522192059,96.8429
1289522252059,96.8909
1289522312059,97.1052
1289522372059,97.2208
1289522432059,97.0642
1289522492059,96.7350
1289522552059,97.1629
1289522612059,97.1230
1289522672059,97.0496
1289522732059,97.2842
1289522792059,96.6360
1289522852059,96.9628
1289522912059,97.3644
1289522972059,97.0007
1289523032059,97.0149
1289523092059,97.3672
1289523152059,97.0499
1289523212059,96.9152
1289523272059,96.8264
1289523332059,97.5203
1289523392059,97.5571
1289523452059,97.2479
1289523512059,97.6544
1289523572059,96.9393
1289523632069,97.3129
1289523692069,97.3563
1289523752069,96.9116
1289523812069,96.9581
1289523872069,96.9255
1289523932069,97.7274
1289523992069,97.2266
1289524052069,96.9844
1289524112069,97.1310
1289524172069,97.1724
1289524232069,97.0024
1289524292069,97.0244
1289524352069,97.3466
1289524412069,96.7814
1289524472069,97.9056
1289524532069,97.0501
1289524592069,97.5392
1289524652069,97.3689
1289524712069,97.3339
1289524772069,97.2276
1289524832069,97.0603
1289524892069,96.7630
1289524952069,97.0695
1289525012069,96.9209
1289525072069,96.8896
1289525132069,96.4457
1289525192069,97.0976
1289525252069,97.1759
1289525312069,96.9930
1289525372069,96.6276
1289525432069,97.2864
1289525492069,97.2074
1289525552069,97.9206
1289525612069,98.5504
1289525672069,98.5602
1289525732069,98.0554
1289525792069,97.5777
1289525852069,97.9767
1289525912069,98.3254
1289525972069,97.8665
1289526032069,98.3396
1289526092069,97.8981
1289526152069,97.8466
1289526212069,97.5397
1289526272069,96.8590
1289526332069,97.3894
1289526392069,98.0931
1289526452069,97.1463
1289526512069,97.2816
1289526572069,97.2286
1289526632069,96.6851
1289526692069,96.7847
1289526752069,96.5807
1289526812069,96.6951
1289526872069,97.0608
1289526932069,96.4223
1289526992069,96.8784
1289527052069,96.6336
1289527112069,96.5490
1289527172069,96.7591
1289527232080,96.7260
1289527292080,96.5747
1289527352080,96.5178
1289527412080,96.7083
1289527472080,96.8273
1289527532080,96.3338
1289527592080,96.6934
1289527652080,97.0365
1289527712080,96.6744
1289527772080,96.2195
1289527832080,96.5713
1289527892080,96.7553
1289527952080,96.7253
1289528012080,97.0795
1289528072080,97.0834
1289528132080,96.9854
1289528192080,96.5152
1289528252080,96.7709
1289528312080,96.6286
1289528372080,96.8545
1289528432080,96.7525
1289528492080,96.8739
1289528552080,96.9065
1289528612080,96.9671
1289528672080,96.7710
1289528732080,96.5299
1289528792080,97.0112
1289528852080,96.8198
1289528912080,96.8239
1289528972080,96.6242
1289529032080,96.5418
1289529092080,96.5638
1289529152080,96.7186
1289529212080,96.6610
1289529272080,96.6514
1289529332080,96.5488
1289529392080,96.1715
1289529452080,96.7483
1289529512080,96.2068
1289529572080,96.1984
1289529632080,97.0327
1289529692080,96.8834
1289529752080,97.0307
1289529812080,96.6425
1289529872080,96.5650
1289529932080,96.5497
1289529992080,96.5636
1289530052080,96.9434
1289530112080,96.9107
1289530172080,96.8540
1289530232080,96.7858
1289530292080,97.1079
1289530352080,96.8353
1289530412080,97.1620
1289530472080,97.3842
1289530532080,96.8543
1289530592080,97.0953
1289530652080,96.6878
1289530712080,96.9380
1289530772080,96.5711
1289530832090,96.9271
1289530892090,96.8705
1289530952090,96.9006
1289531012090,96.8647
1289531072090,96.8882
1289531132090,96.5197
1289531192090,96.8631
1289531252090,97.0669
1289531312090,96.3484
1289531372090,96.8514
1289531432090,96.8848
1289531492090,96.8131
1289531552090,96.7878
1289531612090,96.8962
1289531672090,96.6556
1289531732090,96.7021
1289531792090,96.7226
1289531852090,96.9723
1289531912090,96.5667
1289531972090,97.2985
1289532032090,97.1525
1289532092090,97.1163
1289532152090,96.9962
1289532212090,96.5843
1289532272090,96.8246
1289532332090,96.7266
1289532392090,96.9067
1289532452090,97.2408
1289532512090,97.4294
1289532572090,97.0843
1289532632090,96.9182
1289532692090,96.7309
1289532752090,97.2782
1289532812090,97.3583
1289532872090,96.8609
1289532932090,96.8245
1289532992090,97.0783
1289533052090,97.2267
1289533112090,97.3864
1289533172090,97.4370
1289533232090,97.4364
1289533292090,97.3066
1289533352090,96.9551
1289533412090,96.9877
1289533472090,96.9650
1289533532090,97.3102
1289533592090,97.3470
1289533652090,97.6900
1289533712090,97.0117
1289533772090,97.5136
1289533832090,97.1081
1289533892090,97.5313
1289533952090,97.2345
1289534012090,97.8844
1289534072090,97.1180
1289534132090,97.4390
1289534192090,97.3940
1289534252090,97.1645
1289534312090,97.6396
1289534372090,97.5185
1289534432100,97.3629
1289534492100,97.7103
1289534552100,97.9438
1289534612100,97.7574
1289534672100,97.1930
1289534732100,97.4113
1289534792100,97.3500
1289534852100,97.5471
1289534912100,97.2822
1289534972100,97.6791
1289535032100,97.7155
1289535092100,97.2437
1289535152100,96.9068
1289535212100,97.0398
1289535272100,97.5593
1289535332100,97.6407
1289535392100,97.6961
1289535452100,97.5966
1289535512100,97.6651
1289535572100,97.3875
1289535632100,97.3157
1289535692100,97.4435
1289535752100,97.8026
1289535812100,97.2031
1289535872100,97.2025
1289535932100,96.9536
1289535992100,97.0322
1289536052100,97.2020
1289536112100,97.4607
1289536172100,97.4113
1289536232100,97.3400
1289536292100,97.8064
1289536352100,97.5491
1289536412100,97.6759
1289536472100,96.8905
1289536532100,97.5217
1289536592100,96.9241
1289536652100,96.8856
1289536712100,97.1434
1289536772100,97.3837
1289536832100,97.0169
1289536892100,96.9611
1289536952100,97.0731
1289537012100,97.2292
1289537072100,97.4479
1289537132100,97.1716
1289537192100,96.6278
1289537252100,96.9792
1289537312100,97.5371
1289537372100,97.3229
1289537432100,97.1629
1289537492100,97.3083
1289537552100,97.2303
1289537612100,97.5037
1289537672100,97.4575
1289537732100,97.2962
1289537792100,97.4095
1289537852100,96.7692
1289537912100,97.0047
1289537972100,97.1482
1289538032111,97.0075
1289538092111,96.6544
1289538152111,96.7109
1289538212111,97.3276
1289538272111,96.9256
1289538332111,96.8624
1289538392111,96.8994
1289538452111,97.2829
1289538512111,96.6199
1289538572111,97.1477
1289538632111,96.9234
1289538692111,96.6750
1289538752111,97.1121
1289538812111,96.9329
1289538872111,96.7750
1289538932111,96.8179
1289538992111,96.8675
1289539052111,96.7490
1289539112111,97.4246
1289539172111,96.6299
1289539232111,96.8187
1289539292111,97.8746
1289539352111,96.4959
1289539412111,96.6985
1289539472111,96.9447
1289539532111,96.7401
1289539592111,96.7854
1289539652111,96.4328
1289539712111,96.9576
1289539772111,97.0843
1289539832111,96.5429
1289539892111,97.4977
1289539952111,97.0011
1289540012111,96.3317
1289540072111,96.6641
1289540132111,96.9839
1289540192111,96.4571
1289540252111,96.6348
1289540312111,97.0257
1289540372111,96.1890
1289540432111,96.9802
1289540492111,97.1325
1289540552111,96.8103
1289540612111,96.3512
1289540672111,96.8475
1289540732111,96.2089
1289540792111,96.3869
1289540852111,96.7497
1289540912111,96.9180
1289540972111,96.3329
1289541032111,96.7500
1289541092111,96.4733
1289541152111,96.5858
1289541212111,96.5009
1289541272111,97.0372
1289541332111,96.2240
1289541392111,96.5920
1289541452111,96.6681
1289541512111,96.6931
1289541572111,96.9844
1289541632121,96.9183
1289541692121,96.2765
1289541752121,96.6042
1289541812121,96.0780
1289541872121,96.8193
1289541932121,96.6292
1289541992121,95.8804
1289542052121,96.5097
1289542112121,96.3757
1289542172121,96.5813
1289542232121,96.5808
1289542292121,96.2003
1289542352121,96.5974
1289542412121,96.4287
1289542472121,95.9820
1289542532121,97.1148
1289542592121,97.0876
1289542652121,96.2618
1289542712121,96.4678
1289542772121,96.1409
1289542832121,96.6524
1289542892121,96.1593
1289542952121,96.7012
1289543012121,96.9176
1289543072121,97.0982
1289543132121,96.5819
1289543192121,96.3276
1289543252121,96.4425
1289543312121,96.5113
1289543372121,96.9269
1289543432121,96.7618
1289543492121,96.6231
1289543552121,96.4471
1289543612121,96.6540
1289543672121,96.4932
1289543732121,96.1936
1289543792121,96.3227
1289543852121,96.3798
1289543912121,96.3387
1289543972121,96.6682
1289544032121,96.4399
1289544092121,96.5649
1289544152121,96.4157
1289544212121,95.9042
1289544272121,96.2346
1289544332121,96.2902
1289544392121,96.3737
1289544452121,96.0471
1289544512121,96.0049
1289544572121,96.2209
1289544632121,96.5732
1289544692121,96.1766
1289544752121,96.4926
1289544812121,96.1976
1289544872121,96.5742
1289544932121,95.8703
1289544992121,95.9233
1289545052121,96.2262
1289545112121,96.1657
1289545172121,96.0658
1289545232132,96.2167
1289545292132,96.3336
1289545352132,96.0405
1289545412132,96.1674
1289545472132,96.2113
1289545532132,96.5386
1289545592132,96.7215
1289545652132,96.2641
1289545712132,96.7299
1289545772132,96.4797
1289545832132,96.0121
1289545892132,96.4130
1289545952132,96.3409
1289546012132,96.6633
1289546072132,96.1295
1289546132132,96.3765
1289546192132,96.2055
1289546252132,96.0099
1289546312132,96.4576
1289546372132,96.5863
1289546432132,96.3315
1289546492132,96.7426
1289546552132,96.1333
1289546612132,96.0256
1289546672132,95.7047
1289546732132,96.1214
1289546792132,95.8977
1289546852132,95.8054
1289546912132,96.4048
1289546972132,96.3430
1289547032132,96.3675
1289547092132,95.6835
1289547152132,95.8866
1289547212132,96.0577
1289547272132,96.2682
1289547332132,96.1739
1289547392132,96.4046
1289547452132,95.7679
1289547512132,95.8561
1289547572132,96.0848
1289547632132,96.1856
1289547692132,96.6425
1289547752132,96.3157
1289547812132,95.8340
1289547872132,96.1007
1289547932132,96.2366
1289547992132,96.1099
1289548052132,95.8326
1289548112132,96.0038
1289548172132,96.4233
1289548232132,95.5153
1289548292132,95.5901
1289548352132,96.5666
1289548412132,95.8758
1289548472132,96.6837
1289548532132,95.6933
1289548592132,96.0901
1289548652132,96.1615
1289548712132,96.1064
1289548772132,95.8578
1289548832143,95.8569
1289548892143,95.7291
1289548952143,96.3161
1289549012143,95.9259
1289549072143,96.3626
1289549132143,96.7326
1289549192143,96.4842
1289549252143,96.0416
1289549312143,96.0464
1289549372143,96.1831
1289549432143,95.9498
1289549492143,96.3004
1289549552143,96.0168
1289549612143,96.0960
1289549672143,95.2731
1289549732143,95.6796
1289549792143,95.7632
1289549852143,96.3775
1289549912143,95.5309
1289549972143,95.9477
1289550032143,96.0429
1289550092143,96.0785
1289550152143,96.2782
1289550212143,95.7497
1289550272143,96.1385
1289550332143,95.6934
1289550392143,96.2713
1289550452143,95.8938
1289550512143,96.0191
1289550572143,96.0611
1289550632143,96.0383
1289550692143,96.2396
1289550752143,95.7383
1289550812143,95.5253
1289550872143,95.5292
1289550932143,95.2523
1289550992143,95.6898
1289551052143,95.7805
1289551112143,95.8505
1289551172143,95.7701
1289551232143,95.8870
1289551292143,95.7524
1289551352143,95.8843
1289551412143,95.9912
1289551472143,96.1066
1289551532143,96.0101
1289551592143,95.4533
1289551652143,95.7070
1289551712143,95.6750
1289551772143,95.2022
1289551832143,95.5571
1289551892143,95.3928
1289551952143,94.9490
1289552012143,95.5577
1289552072143,95.9047
1289552132143,95.5228
1289552192143,96.4975
1289552252143,96.0742
1289552312143,95.9159
1289552372143,95.8385
1289552432154,96.2159
1289552492154,96.3389
1289552552154,95.6939
1289552612154,95.8680
1289552672154,95.8008
1289552732154,95.7973
1289552792154,95.8612
1289552852154,95.7802
1289552912154,95.3853
1289552972154,95.8169
1289553032154,95.8230
1289553092154,95.5437
1289553152154,95.7224
1289553212154,95.6821
1289553272154,95.1629
1289553332154,95.8069
1289553392154,95.7757
1289553452154,95.9177
1289553512154,95.1421
1289553572154,95.9042
1289553632154,96.0246
1289553692154,95.1346
1289553752154,95.7094
1289553812154,95.5263
1289553872154,95.6336
1289553932154,95.4645
1289553992154,95.9476
1289554052154,95.2696
1289554112154,95.6172
1289554172154,95.2287
1289554232154,95.2097
1289554292154,95.2605
1289554352154,95.3145
1289554412154,95.3928
1289554472154,94.9070
1289554532154,95.2715
1289554592154,95.6454
1289554652154,95.6085
1289554712154,94.9019
1289554772154,95.3477
1289554832154,95.0406
1289554892154,95.4555
1289554952154,95.0411
1289555012154,95.1943
1289555072154,95.3975
1289555132154,95.7289
1289555192154,95.1619
1289555252154,95.5527
1289555312154,95.4095
1289555372154,95.4316
1289555432154,95.4762
1289555492154,95.0659
1289555552154,95.8024
1289555612154,95.5716
1289555672154,95.3257
1289555732154,94.8492
1289555792154,95.2688
1289555852154,95.0630
1289555912154,95.2612
1289555972154,95.3102
1289556032165,95.2035
1289556092165,95.3229
1289556152165,95.8136
1289556212165,95.5376
1289556272165,95.7220
1289556332165,95.2821
1289556392165,95.5533
1289556452165,96.0690
1289556512165,95.5990
1289556572165,95.7393
1289556632165,95.4104
1289556692165,95.4548
1289556752165,95.6667
1289556812165,95.6069
1289556872165,95.0025
1289556932165,95.8649
1289556992165,95.5474
1289557052165,95.5966
1289557112165,95.6485
1289557172165,95.7933
1289557232165,95.4693
1289557292165,95.1816
1289557352165,95.6737
1289557412165,95.7742
1289557472165,95.6563
1289557532165,95.8416
1289557592165,95.9446
1289557652165,95.9458
1289557712165,95.5785
1289557772165,95.5404
1289557832165,95.9312
1289557892165,95.7787
1289557952165,95.6126
1289558012165,95.7615
1289558072165,95.8218
1289558132165,95.9689
1289558192165,95.8380
1289558252165,96.0690
1289558312165,95.7913
1289558372165,95.4258
1289558432165,95.8977
1289558492165,96.0969
1289558552165,95.6878
1289558612165,95.7285
1289558672165,96.2565
1289558732165,96.1009
1289558792165,95.7199
1289558852165,95.8672
1289558912165,95.8997
1289558972165,95.3496
1289559032165,96.1579
1289559092165,95.4128
1289559152165,96.4163
1289559212165,96.1391
1289559272165,96.4495
1289559332165,95.6965
1289559392165,96.2935
1289559452165,96.2144
1289559512165,96.2155
1289559572165,96.3884
1289559632177,96.1966
1289559692177,95.9142
1289559752177,96.3261
1289559812177,96.0564
1289559872177,95.7950
1289559932177,96.4966
1289559992177,95.8777
1289560052177,96.1105
1289560112177,96.2259
1289560172177,95.7258
1289560232177,95.9429
1289560292177,96.3151
1289560352177,96.3457
1289560412177,96.2070
1289560472177,96.0416
1289560532177,96.3118
1289560592177,96.2705
1289560652177,96.0617
1289560712177,95.7005
1289560772177,95.9209
1289560832177,96.1245
1289560892177,95.8750
1289560952177,96.0860
1289561012177,96.1105
1289561072177,95.8487
1289561132177,95.3839
1289561192177,96.2801
1289561252177,95.7480
1289561312177,95.6123
1289561372177,95.7579
1289561432177,95.8693
1289561492177,96.1807
1289561552177,95.8808
1289561612177,95.7656
1289561672177,95.0500
1289561732177,95.7247
1289561792177,95.5407
1289561852177,96.0566
1289561912177,95.7386
1289561972177,95.9797
1289562032177,96.0905
1289562092177,96.7913
1289562152177,95.5162
1289562212177,96.2202
1289562272177,95.6771
1289562332177,95.7347
1289562392177,96.1147
1289562452177,95.8747
1289562512177,96.1259
1289562572177,95.7958
1289562632177,95.6130
1289562692177,95.9621
1289562752177,95.5836
1289562812177,96.0304
1289562872177,95.8756
1289562932177,95.8701
1289562992177,96.2728
1289563052177,95.8083
1289563112177,95.6138
1289563172177,95.7381
1289563232189,96.0411
1289563292189,95.7880
1289563352189,96.0259
1289563412189,95.4032
1289563472189,96.1193
1289563532189,96.1573
1289563592189,95.7274
1289563652189,96.0102
1289563712189,95.8450
1289563772189,96.3232
1289563832189,96.0599
1289563892189,95.7709
1289563952189,95.5242
1289564012189,96.0634
1289564072189,95.7251
1289564132189,96.1710
1289564192189,95.8992
1289564252189,95.9215
1289564312189,96.2034
1289564372189,96.6377
1289564432189,95.9613
1289564492189,96.0764
1289564552189,95.3741
1289564612189,96.3858
1289564672189,95.8434
1289564732189,96.0770
1289564792189,95.7053
1289564852189,96.1121
1289564912189,95.8497
1289564972189,95.9303
1289565032189,95.5003
1289565092189,95.8481
1289565152189,95.8971
1289565212189,95.9529
1289565272189,96.0179
1289565332189,96.1289
1289565392189,95.6509
1289565452189,95.6320
1289565512189,95.9397
1289565572189,95.7663
1289565632189,96.0046
1289565692189,95.6769
1289565752189,96.0751
1289565812189,95.7683
1289565872189,95.6754
1289565932189,96.0132
1289565992189,95.7561
1289566052189,95.8438
1289566112189,95.7427
1289566172189,95.9054
1289566232189,96.5316
1289566292189,95.7417
1289566352189,95.6482
1289566412189,96.0475
1289566472189,95.7897
1289566532189,95.5045
1289566592189,95.7744
1289566652189,95.8635
1289566712189,95.7583
1289566772189,96.1889
1289566832201,96.2398
1289566892201,95.8570
1289566952201,95.9236
1289567012201,96.0727
1289567072201,95.7556
1289567132201,96.4439
1289567192201,95.9602
1289567252201,96.1479
1289567312201,96.2283
1289567372201,95.9237
1289567432201,96.3859
1289567492201,96.1454
1289567552201,96.0636
1289567612201,95.9971
1289567672201,96.4228
1289567732201,95.8725
1289567792201,96.0962
1289567852201,95.7792
1289567912201,96.3768
1289567972201,95.9672
1289568032201,96.2806
1289568092201,96.1352
1289568152201,95.8068
1289568212201,96.3915
1289568272201,95.7198
1289568332201,95.7761
1289568392201,96.0884
1289568452201,96.0984
1289568512201,96.2273
1289568572201,96.2242
1289568632201,95.8711
1289568692201,96.4674
1289568752201,95.9334
1289568812201,95.9389
1289568872201,96.3317
1289568932201,96.3898
1289568992201,95.9094
1289569052201,95.8777
1289569112201,95.6919
1289569172201,95.5580
1289569232201,95.7152
1289569292201,95.7800
1289569352201,95.9862
1289569412201,95.9540
1289569472201,96.0118
1289569532201,96.3004
1289569592201,96.0682
1289569652201,96.2377
1289569712201,95.7928
1289569772201,95.9759
1289569832201,95.8139
1289569892201,96.0756
1289569952201,95.7031
1289570012201,96.2576
1289570072201,96.1589
1289570132201,96.2400
1289570192201,95.9607
1289570252201,96.0547
1289570312201,96.2092
1289570372201,95.7219
1289570432213,96.2498
1289570492213,96.2079
1289570552213,95.8712
1289570612213,96.4177
1289570672213,96.2475
1289570732213,95.8312
1289570792213,96.2060
1289570852213,95.9217
1289570912213,95.8576
1289570972213,96.2080
1289571032213,95.8296
1289571092213,96.0909
1289571152213,95.8822
1289571212213,96.3444
1289571272213,95.9048
1289571332213,96.1925
1289571392213,96.2536
1289571452213,95.8197
1289571512213,95.7553
1289571572213,95.8519
1289571632213,96.5263
1289571692213,95.9214
1289571752213,95.6034
1289571812213,96.0045
1289571872213,96.1196
1289571932213,95.8260
1289571992213,96.5474
1289572052213,96.2283
1289572112213,96.1829
1289572172213,96.1571
1289572232213,95.9581
1289572292213,95.6842
1289572352213,96.1263
1289572412213,96.0614
1289572472213,96.1188
1289572532213,95.8738
1289572592213,95.7597
1289572652213,96.0339
1289572712213,95.8273
1289572772213,96.1513
1289572832213,95.6000
1289572892213,96.0680
1289572952213,95.9522
1289573012213,96.2540
1289573072213,96.1173
1289573132213,95.3109
1289573192213,96.0005
1289573252213,95.4218
1289573312213,95.7757
1289573372213,95.9592
1289573432213,96.6936
1289573492213,96.1162
1289573552213,95.8127
1289573612213,95.9914
1289573672213,95.7268
1289573732213,96.0541
1289573792213,96.0412
1289573852213,95.8155
1289573912213,95.7064
1289573972213,96.7940
1289574032225,95.9806
1289574092225,95.7455
1289574152225,95.4980
1289574212225,95.9690
1289574272225,96.0319
1289574332225,95.9784
1289574392225,95.8803
1289574452225,96.3109
1289574512225,96.0320
1289574572225,96.0007
1289574632225,95.3925
1289574692225,95.5687
1289574752225,95.4913
1289574812225,95.3994
1289574872225,95.3325
1289574932225,95.8376
1289574992225,95.8387
1289575052225,95.5030
1289575112225,95.9100
1289575172225,95.4428
1289575232225,95.4482
1289575292225,95.7763
1289575352225,95.4317
1289575412225,95.8256
1289575472225,95.9410
1289575532225,95.8073
1289575592225,95.8800
1289575652225,95.4272
1289575712225,95.5492
1289575772225,95.4090
1289575832225,95.7368
1289575892225,95.6179
1289575952225,96.2774
1289576012225,95.3714
1289576072225,95.6027
1289576132225,95.7165
1289576192225,95.5651
1289576252225,95.6224
1289576312225,95.6406
1289576372225,95.4173
1289576432225,95.2596
1289576492225,95.5977
1289576552225,95.8428
1289576612225,95.9843
1289576672225,95.7573
1289576732225,95.0766
1289576792225,95.8980
1289576852225,95.6468
1289576912225,95.3654
1289576972225,95.6324
1289577032225,95.6969
1289577092225,95.9539
1289577152225,95.6438
1289577212225,95.3456
1289577272225,95.9220
1289577332225,95.6631
1289577392225,95.6654
1289577452225,94.9402
1289577512225,95.5919
1289577572225,95.3171
1289577632237,95.1564
1289577692237,95.5559
1289577752237,95.5491
1289577812237,95.6154
1289577872237,95.1924
1289577932237,95.2450
1289577992237,95.2819
1289578052237,95.0823
1289578112237,95.3642
1289578172237,95.3762
1289578232237,95.6654
1289578292237,95.2346
1289578352237,95.4180
1289578412237,94.9682
1289578472237,95.7955
1289578532237,94.9848
1289578592237,95.7202
1289578652237,95.4116
1289578712237,95.4803
1289578772237,94.7723
1289578832237,95.0698
1289578892237,94.8907
1289578952237,95.1625
1289579012237,94.9724
1289579072237,94.8939
1289579132237,95.5855
1289579192237,95.0149
1289579252237,95.4325
1289579312237,95.3413
1289579372237,95.0565
1289579432237,94.8601
1289579492237,95.3831
1289579552237,95.0948
1289579612237,95.2538
1289579672237,94.9034
1289579732237,95.3035
1289579792237,95.4793
1289579852237,95.0346
1289579912237,95.3846
1289579972237,95.1201
1289580032237,95.2518
1289580092237,95.3248
1289580152237,95.3986
1289580212237,94.8403
1289580272237,95.2245
1289580332237,95.4337
1289580392237,94.8022
1289580452237,95.1134
1289580512237,95.6371
1289580572237,95.2234
1289580632237,94.9401
1289580692237,95.4510
1289580752237,95.2384
1289580812237,95.4821
1289580872237,95.3044
1289580932237,95.4707
1289580992237,95.4519
1289581052237,95.2294
1289581112237,95.1700
1289581172237,95.4631
1289581232249,95.7530
1289581292249,95.8251
1289581352249,95.1162
1289581412249,95.9283
1289581472249,95.7382
1289581532249,95.6920
1289581592249,95.6577
1289581652249,95.9883
1289581712249,95.4126
1289581772249,95.6142
1289581832249,95.4195
1289581892249,95.6647
1289581952249,95.6733
1289582012249,95.9994
1289582072249,95.4635
1289582132249,95.5457
1289582192249,95.9677
1289582252249,95.8993
1289582312249,95.7051
1289582372249,95.5991
1289582432249,95.5910
1289582492249,96.0475
1289582552249,95.7545
1289582612249,95.6789
1289582672249,96.0784
1289582732249,95.7631
1289582792249,96.0103
1289582852249,95.8019
1289582912249,95.9882
1289582972249,96.1067
1289583032249,96.1056
1289583092249,95.3189
1289583152249,95.5174
1289583212249,95.6041
1289583272249,95.6996
1289583332249,96.2803
1289583392249,95.7848
1289583452249,95.8303
1289583512249,95.8588
1289583572249,95.8677
1289583632249,96.2270
1289583692249,95.9553
1289583752249,95.7036
1289583812249,95.5967
1289583872249,96.1967
1289583932249,96.0720
1289583992249,95.6030
1289584052249,95.7772
1289584112249,95.7869
1289584172249,95.4537
1289584232249,95.6336
1289584292249,95.7515
1289584352249,95.9918
1289584412249,95.7007
1289584472249,95.9857
1289584532249,95.3914
1289584592249,95.7268
1289584652249,95.7060
1289584712249,95.8469
1289584772249,96.0300
1289584832261,95.3758
1289584892261,95.8449
1289584952261,95.6529
1289585012261,95.3222
1289585072261,96.1310
1289585132261,95.6253
1289585192261,95.4187
1289585252261,95.6405
1289585312261,95.3859
1289585372261,95.9280